GW4987 Weather Reports


time (UTC)temp
F
wind
direction
speed
knots
gust
knots
rain 1hr
in
rain 24hr
in
rain mn
in
humidity
%
barometer
mb
20260905051003 70 215 3.5 5.2 0.00 0.00 0.00 43 1021.6
20260905050503 70 219 2.6 5.2 0.00 0.00 0.00 43 1021.7
20260905050004 70 205 4.3 4.3 0.00 0.00 0.00 42 1021.7
20260905045504 70 199 3.5 3.5 0.00 0.00 0.00 42 1021.8
20260905045004 71 209 1.7 6.1 0.00 0.00 0.00 42 1021.5
20260905044504 71 190 4.3 7.8 0.00 0.00 0.00 43 1021.5
20260905042504 71 215 3.5 5.2 0.00 0.00 0.00 51 1021.5
20260905042004 72 188 6.1 8.7 0.00 0.00 0.00 50 1021.6
20260905041504 72 194 7.0 7.8 0.00 0.00 0.00 51 1021.7
20260905041003 71 181 6.1 7.8 0.00 0.00 0.00 51 1021.3
20260905040503 71 193 4.3 6.1 0.00 0.00 0.00 51 1021.3
20260905040004 72 178 3.5 7.8 0.00 0.00 0.00 50 1021.3
20260905035503 72 173 7.8 7.8 0.00 0.00 0.00 50 1021.4
20260905035003 72 208 6.1 7.8 0.00 0.00 0.00 50 1021.5
20260905034504 72 173 4.3 7.0 0.00 0.00 0.00 50 1021.3
20260905032503 72 224 2.6 7.0 0.00 0.00 0.00 50 1021.0
20260905032003 72 217 5.2 9.6 0.00 0.00 0.00 50 1021.1
20260905031504 72 213 3.5 7.8 0.00 0.00 0.00 50 1021.3
20260905031003 72 188 5.2 7.0 0.00 0.00 0.00 50 1020.9
20260905030504 72 226 4.3 8.7 0.00 0.00 0.00 50 1020.7
20260905030004 72 224 4.3 7.0 0.00 0.00 0.00 49 1020.7
20260905024003 72 167 5.2 11.3 0.00 0.00 0.00 47 1020.7
20260905023503 73 177 6.1 8.7 0.00 0.00 0.00 47 1020.4
20260905023003 73 226 5.2 13.0 0.00 0.00 0.00 46 1020.5
20260905022503 73 196 4.3 12.2 0.00 0.00 0.00 46 1020.5
20260905022003 73 222 3.5 7.0 0.00 0.00 0.00 46 1020.5
20260905021504 73 213 8.7 13.0 0.00 0.00 0.00 45 1020.5
20260905015503 74 197 9.6 11.3 0.00 0.00 0.00 44 1020.4
20260905015003 74 187 10.4 11.3 0.00 0.00 0.00 44 1020.5
20260905014504 74 200 7.0 13.0 0.00 0.00 0.00 43 1020.4
20260905014003 74 214 6.1 8.7 0.00 0.00 0.00 43 1020.4
20260905013503 74 208 8.7 14.8 0.00 0.00 0.00 42 1020.3
20260905013004 75 211 9.6 12.2 0.00 0.00 0.00 42 1020.4
20260905012504 75 190 15.6 16.5 0.00 0.00 0.00 41 1020.4
20260905012004 76 194 11.3 17.4 0.00 0.00 0.00 40 1020.3
20260905011504 76 195 7.0 19.1 0.00 0.00 0.00 41 1020.3
20260905011004 76 213 7.8 15.6 0.00 0.00 0.00 41 1020.3
20260905010504 76 215 8.7 11.3 0.00 0.00 0.00 41 1020.2
20260905010004 77 216 7.8 12.2 0.00 0.00 0.00 40 1020.2
20260905005504 77 206 9.6 16.5 0.00 0.00 0.00 39 1020.3
20260905005003 77 217 12.2 15.6 0.00 0.00 0.00 41 1020.2
20260905004504 78 202 7.0 13.9 0.00 0.00 0.00 41 1020.3
20260905004003 78 247 7.8 14.8 0.00 0.00 0.00 41 1020.2
20260905003503 77 183 7.0 18.2 0.00 0.00 0.00 41 1020.2
20260905003004 78 218 8.7 13.9 0.00 0.00 0.00 41 1020.4
20260905002503 76 204 12.2 22.6 0.00 0.00 0.00 42 1020.4
20260905002003 77 202 12.2 22.6 0.00 0.00 0.00 43 1020.3
20260905001504 77 207 11.3 20.9 0.00 0.00 0.00 41 1020.4
20260905001003 78 187 12.2 19.1 0.00 0.00 0.00 41 1020.4
20260905000503 76 214 9.6 14.8 0.00 0.00 0.00 43 1020.4
20260905000004 76 209 9.6 20.0 0.00 0.00 0.00 44 1020.4
20260904235504 78 233 11.3 20.0 0.00 0.00 0.00 43 1020.3
20260904235004 78 214 13.0 25.2 0.00 0.00 0.00 42 1020.3
20260904234504 80 199 13.9 25.2 0.00 0.00 0.00 40 1020.2
20260904234004 79 205 8.7 13.0 0.00 0.00 0.00 41 1020.3
20260904233504 79 239 11.3 15.6 0.00 0.00 0.00 41 1020.3
20260904233004 78 241 8.7 14.8 0.00 0.00 0.00 41 1020.5
20260904232504 78 205 13.0 19.1 0.00 0.00 0.00 42 1020.2
20260904232004 78 220 11.3 15.6 0.00 0.00 0.00 43 1020.5
20260904231504 77 191 7.8 20.9 0.00 0.00 0.00 43 1020.3
20260904231003 79 220 11.3 18.2 0.00 0.00 0.00 40 1020.5
20260904230503 78 188 3.5 14.8 0.00 0.00 0.00 41 1020.3
20260904230004 78 210 4.3 14.8 0.00 0.00 0.00 41 1020.4
20260904225504 78 213 11.3 21.7 0.00 0.00 0.00 41 1020.4
20260904225004 79 275 20.0 20.9 0.00 0.00 0.00 40 1020.5
20260904224504 79 187 7.8 21.7 0.00 0.00 0.00 41 1020.5
20260904224003 80 207 9.6 18.2 0.00 0.00 0.00 40 1020.4
20260904223503 79 212 10.4 17.4 0.00 0.00 0.00 40 1020.5
20260904223004 78 207 10.4 19.1 0.00 0.00 0.00 40 1020.6
20260904222504 80 220 8.7 18.2 0.00 0.00 0.00 39 1020.6
20260904222004 80 258 7.0 11.3 0.00 0.00 0.00 38 1020.4
20260904221503 80 214 7.8 13.0 0.00 0.00 0.00 40 1020.7
20260904221003 80 200 8.7 13.9 0.00 0.00 0.00 41 1020.6
20260904220503 80 183 9.6 13.0 0.00 0.00 0.00 40 1020.6
20260904220003 79 187 4.3 13.0 0.00 0.00 0.00 40 1020.7
20260904215503 79 231 7.8 17.4 0.00 0.00 0.00 41 1020.8
20260904215003 79 253 8.7 13.0 0.00 0.00 0.00 41 1020.8
20260904211503 76 164 8.7 20.9 0.00 0.00 0.00 44 1021.1
20260904211003 76 247 11.3 23.5 0.00 0.00 0.00 45 1020.9
20260904210503 78 223 13.0 14.8 0.00 0.00 0.00 45 1021.1
20260904210004 77 197 6.1 14.8 0.00 0.00 0.00 44 1021.3
20260904205503 78 170 7.0 17.4 0.00 0.00 0.00 42 1021.1
20260904205004 76 205 13.9 20.9 0.00 0.00 0.00 45 1021.3
20260904204503 78 226 9.6 15.6 0.00 0.00 0.00 42 1021.0
20260904204003 76 186 12.2 12.2 0.00 0.00 0.00 47 1021.0
20260904203504 77 141 7.0 16.5 0.00 0.00 0.00 46 1021.3
20260904203004 76 173 11.3 18.2 0.00 0.00 0.00 47 1021.5
20260904202504 75 169 8.7 14.8 0.00 0.00 0.00 49 1021.5
20260904202004 75 200 4.3 18.2 0.00 0.00 0.00 49 1021.0
20260904201503 76 189 10.4 17.4 0.00 0.00 0.00 46 1021.3
20260904201003 76 145 6.1 13.0 0.00 0.00 0.00 49 1021.1
20260904200504 77 189 7.8 26.1 0.00 0.00 0.00 47 1021.5
20260904200004 76 188 7.8 8.7 0.00 0.00 0.00 49 1021.6
20260904195503 75 200 12.2 15.6 0.00 0.00 0.00 50 1021.5
20260904195004 76 190 8.7 14.8 0.00 0.00 0.00 47 1021.7
20260904194503 77 211 7.8 20.9 0.00 0.00 0.00 48 1021.5
20260904194003 77 161 5.2 19.1 0.00 0.00 0.00 46 1021.6
20260904193504 76 197 8.7 13.0 0.00 0.00 0.00 49 1021.9
20260904193004 77 160 11.3 16.5 0.00 0.00 0.00 48 1021.7
20260904192504 78 167 4.3 13.0 0.00 0.00 0.00 49 1021.6
20260904192004 77 208 8.7 18.2 0.00 0.00 0.00 47 1021.4
20260904191503 78 196 7.8 13.9 0.00 0.00 0.00 47 1021.6
20260904191004 76 156 2.6 20.9 0.00 0.00 0.00 49 1021.9
20260904190503 77 185 5.2 13.0 0.00 0.00 0.00 50 1021.8
20260904190003 76 163 9.6 16.5 0.00 0.00 0.00 50 1021.7
20260904185503 76 212 11.3 19.1 0.00 0.00 0.00 50 1021.7
20260904185004 76 155 4.3 13.9 0.00 0.00 0.00 52 1021.8
20260904184503 76 177 5.2 18.2 0.00 0.00 0.00 52 1022.0
20260904184003 76 163 8.7 22.6 0.00 0.00 0.00 51 1021.9
20260904183504 75 167 7.0 13.9 0.00 0.00 0.00 53 1021.9
20260904183004 73 250 9.6 15.6 0.00 0.00 0.00 56 1022.2
20260904182503 74 203 7.0 14.8 0.00 0.00 0.00 54 1022.0
20260904182004 75 209 12.2 19.1 0.00 0.00 0.00 49 1022.2
20260904180003 74 160 7.8 12.2 0.00 0.00 0.00 56 1022.1
20260904175503 75 205 7.8 13.9 0.00 0.00 0.00 51 1022.3
20260904175003 76 211 8.7 16.5 0.00 0.00 0.00 52 1022.2
20260904174503 75 176 14.8 20.9 0.00 0.00 0.00 52 1022.3
20260904174003 74 211 11.3 17.4 0.00 0.00 0.00 53 1022.2
20260904173504 76 116 7.8 15.6 0.00 0.00 0.00 53 1022.2
20260904173004 74 177 7.0 13.0 0.00 0.00 0.00 56 1022.1
20260904172504 74 159 8.7 19.1 0.00 0.00 0.00 55 1022.2
20260904172003 74 221 9.6 17.4 0.00 0.00 0.00 57 1022.1
20260904171503 75 176 7.0 14.8 0.00 0.00 0.00 55 1022.0
20260904171004 74 211 7.0 13.0 0.00 0.00 0.00 58 1022.2
20260904170504 73 224 9.6 10.4 0.00 0.00 0.00 59 1022.1
20260904170004 73 133 9.6 18.2 0.00 0.00 0.00 60 1022.1
20260904165504 73 161 7.8 16.5 0.00 0.00 0.00 59 1022.1
20260904165003 73 178 5.2 14.8 0.00 0.00 0.00 60 1022.1
20260904164503 73 244 2.6 15.6 0.00 0.00 0.00 60 1022.0
20260904164003 72 130 6.1 17.4 0.00 0.00 0.00 61 1021.8
20260904163504 73 169 2.6 13.9 0.00 0.00 0.00 61 1021.8
20260904163004 72 139 12.2 13.9 0.00 0.00 0.00 62 1021.7
20260904162504 72 132 13.0 16.5 0.00 0.00 0.00 63 1021.7
20260904162003 72 134 2.6 10.4 0.00 0.00 0.00 62 1021.8
20260904161504 71 163 7.8 12.2 0.00 0.00 0.00 64 1021.9
20260904161004 71 224 8.7 13.9 0.00 0.00 0.00 63 1021.7
20260904160503 71 159 17.4 25.2 0.00 0.00 0.00 64 1021.7
20260904160003 70 125 9.6 13.9 0.00 0.00 0.00 65 1021.7
20260904155504 70 162 11.3 17.4 0.00 0.00 0.00 66 1021.7
20260904155003 70 201 10.4 15.6 0.00 0.00 0.00 67 1021.6
20260904154503 70 146 7.8 19.1 0.00 0.00 0.00 68 1021.5
20260904154004 70 150 7.0 16.5 0.00 0.00 0.00 69 1021.6
20260904153504 70 140 2.6 11.3 0.00 0.00 0.00 69 1021.6
20260904153004 69 112 8.7 22.6 0.00 0.00 0.00 71 1021.6
20260904152504 69 208 9.6 11.3 0.00 0.00 0.00 71 1021.4
20260904152003 68 147 9.6 18.2 0.00 0.00 0.00 74 1021.5
20260904151503 68 104 6.1 14.8 0.00 0.00 0.00 76 1021.4
20260904151004 68 171 7.0 15.6 0.00 0.00 0.00 76 1021.5
20260904150504 68 103 9.6 15.6 0.00 0.00 0.00 77 1021.4
20260904150004 68 164 4.3 9.6 0.00 0.00 0.00 78 1021.1
20260904145504 68 181 4.3 15.6 0.00 0.00 0.00 78 1021.5
20260904145004 68 144 7.8 11.3 0.00 0.00 0.00 79 1021.1
20260904144504 67 130 5.2 17.4 0.00 0.00 0.00 79 1021.3
20260904144004 67 143 8.7 17.4 0.00 0.00 0.00 79 1021.4
20260904143504 66 131 12.2 16.5 0.00 0.00 0.00 80 1021.0
20260904143004 66 117 7.8 17.4 0.00 0.00 0.00 81 1021.3
20260904142004 66 214 3.5 9.6 0.00 0.00 0.00 82 1021.1
20260904141504 65 135 7.8 9.6 0.00 0.00 0.00 83 1021.0
20260904141003 65 167 3.5 6.1 0.00 0.00 0.00 84 1021.0
20260904140503 64 160 5.2 7.0 0.00 0.00 0.00 83 1020.8
20260904140004 64 137 4.3 7.8 0.00 0.00 0.00 83 1020.8
20260904135503 64 92 7.0 9.6 0.00 0.00 0.00 83 1020.7
20260904135003 64 186 2.6 6.1 0.00 0.00 0.00 82 1020.8
20260904134504 63 108 3.5 5.2 0.00 0.00 0.00 83 1020.8
20260904134003 63 94 4.3 4.3 0.00 0.00 0.00 82 1020.8
20260904133503 63 120 1.7 2.6 0.00 0.00 0.00 84 1020.8
20260904133003 62 76 2.6 2.6 0.00 0.00 0.00 85 1020.7
20260904132504 61 102 1.7 1.7 0.00 0.00 0.00 87 1020.7
20260904132004 60 120 1.7 1.7 0.00 0.00 0.00 88 1020.5
20260904131504 59 93 1.7 2.6 0.00 0.00 0.00 88 1020.5
20260904131003 59 269 0.0 1.7 0.00 0.00 0.00 88 1020.4
20260904130503 60 319 1.7 2.6 0.00 0.00 0.00 88 1020.3
20260904130004 59 351 0.0 1.7 0.00 0.00 0.00 88 1020.3
20260904125504 60 241 0.0 0.0 0.00 0.00 0.00 87 1020.3
20260904125004 60 176 1.7 1.7 0.00 0.00 0.00 86 1020.2
20260904124504 61 172 1.7 3.5 0.00 0.00 0.00 85 1020.2
20260904124003 61 138 3.5 7.0 0.00 0.00 0.00 85 1020.2
20260904123503 61 97 2.6 3.5 0.00 0.00 0.00 84 1020.2
20260904123004 61 91 5.2 9.6 0.00 0.00 0.00 84 1020.1
20260904122504 61 125 3.5 6.1 0.00 0.00 0.00 83 1020.2
20260904122004 61 115 3.5 5.2 0.00 0.00 0.00 82 1020.1
20260904121504 61 105 2.6 5.2 0.00 0.00 0.00 82 1020.1
20260904121003 61 109 1.7 3.5 0.00 0.00 0.00 81 1020.0
20260904120503 62 111 3.5 4.3 0.00 0.00 0.00 81 1019.9
20260904120004 62 102 3.5 4.3 0.00 0.00 0.00 80 1019.9
20260904114504 63 129 7.0 8.7 0.00 0.00 0.00 78 1020.1
20260904114004 63 167 1.7 2.6 0.00 0.00 0.00 76 1020.1
20260904113504 63 149 2.6 2.6 0.00 0.00 0.00 76 1020.0
20260904113003 64 189 5.2 7.8 0.00 0.00 0.00 75 1020.1
20260904112504 64 199 7.8 11.3 0.00 0.00 0.00 74 1020.2
20260904112004 64 185 2.6 5.2 0.00 0.00 0.00 74 1019.9
20260904111503 64 205 7.0 7.8 0.00 0.00 0.00 75 1020.0
20260904111003 64 147 3.5 7.0 0.00 0.00 0.00 74 1020.1
20260904110504 64 155 4.3 9.6 0.00 0.00 0.00 74 1019.8
20260904104504 64 166 9.6 10.4 0.00 0.00 0.00 73 1019.7
20260904104004 64 182 2.6 8.7 0.00 0.00 0.00 73 1019.6
20260904103504 65 144 8.7 10.4 0.00 0.00 0.00 73 1019.5
20260904103003 65 145 7.8 9.6 0.00 0.00 0.00 73 1019.8
20260904102503 65 180 6.1 7.0 0.00 0.00 0.00 73 1019.8
20260904101004 65 148 5.2 7.8 0.00 0.00 0.00 70 1019.6
20260904100504 65 194 8.7 13.0 0.00 0.00 0.00 69 1019.6
20260904100005 65 166 3.5 6.1 0.00 0.00 0.00 68 1019.6
20260904095503 65 134 3.5 5.2 0.00 0.00 0.00 68 1019.6
20260904095003 65 204 3.5 11.3 0.00 0.00 0.00 68 1019.4
20260904094504 65 116 4.3 6.1 0.00 0.00 0.00 68 1019.4
20260904094003 66 162 4.3 4.3 0.00 0.00 0.00 68 1019.4
20260904093504 65 168 5.2 5.2 0.00 0.00 0.00 69 1019.4
20260904093004 65 158 4.3 5.2 0.00 0.00 0.00 69 1019.7
20260904092503 66 147 5.2 9.6 0.00 0.00 0.00 68 1019.7
20260904092004 66 184 4.3 4.3 0.00 0.00 0.00 68 1019.5
20260904091504 66 194 4.3 8.7 0.00 0.00 0.00 68 1019.6
20260904091004 65 120 5.2 5.2 0.00 0.00 0.00 69 1019.6
20260904090504 66 151 1.7 3.5 0.00 0.00 0.00 68 1019.5
20260904090004 66 184 2.6 2.6 0.00 0.00 0.00 67 1019.5
20260904085503 65 113 3.5 3.5 0.00 0.00 0.00 68 1019.6
20260904085003 66 128 3.5 3.5 0.00 0.00 0.00 67 1019.7
20260904084503 66 149 1.7 4.3 0.00 0.00 0.00 66 1019.5
20260904084003 66 152 4.3 4.3 0.00 0.00 0.00 64 1019.6
20260904083503 67 139 2.6 3.5 0.00 0.00 0.00 63 1019.8
20260904081503 67 212 1.7 4.3 0.00 0.00 0.00 57 1019.8
20260904081003 68 198 5.2 6.1 0.00 0.00 0.00 55 1019.9
20260904080503 67 219 3.5 6.1 0.00 0.00 0.00 55 1019.7
20260904080004 67 167 1.7 3.5 0.00 0.00 0.00 55 1019.8
20260904075504 67 186 4.3 7.0 0.00 0.00 0.00 55 1019.8
20260904075004 67 236 2.6 4.3 0.00 0.00 0.00 56 1019.8
20260904074504 67 207 1.7 4.3 0.00 0.00 0.00 56 1019.8
20260904074003 67 185 2.6 3.5 0.00 0.00 0.00 57 1019.9
20260904073504 67 218 6.1 6.1 0.00 0.00 0.00 58 1019.9
20260904073003 67 194 2.6 4.3 0.00 0.00 0.00 58 1020.0
20260904072503 67 264 2.6 2.6 0.00 0.00 0.00 58 1019.9
20260904072004 67 195 1.7 1.7 0.00 0.00 0.00 58 1019.9
20260904071503 67 246 0.0 1.7 0.00 0.00 0.00 57 1019.8
20260904071003 67 144 1.7 1.7 0.00 0.00 0.00 57 1019.8
20260904070504 68 234 2.6 2.6 0.00 0.00 0.00 53 1019.8
20260904070004 68 276 3.5 4.3 0.00 0.00 0.00 53 1019.9
20260904065503 68 256 3.5 3.5 0.00 0.00 0.00 51 1019.9
20260904065004 68 221 2.6 5.2 0.00 0.00 0.00 51 1019.6
20260904063003 68 208 4.3 4.3 0.00 0.00 0.00 50 1020.0
20260904062503 68 190 4.3 6.1 0.00 0.00 0.00 50 1019.8
20260904062004 68 195 5.2 7.0 0.00 0.00 0.00 50 1019.8
20260904061503 69 184 2.6 6.1 0.00 0.00 0.00 50 1019.8
20260904061004 69 203 4.3 7.8 0.00 0.00 0.00 49 1019.8
20260904060504 69 222 6.1 7.0 0.00 0.00 0.00 50 1019.9
20260904060003 69 207 6.1 7.0 0.00 0.00 0.00 52 1019.8
20260904055503 69 226 6.1 6.1 0.00 0.00 0.00 56 1019.8
20260904055003 69 218 3.5 7.0 0.00 0.00 0.00 61 1019.8
20260904054504 69 204 2.6 7.0 0.00 0.00 0.00 62 1019.7
20260904054004 70 233 3.5 7.0 0.00 0.00 0.00 62 1019.8
20260904053504 70 186 3.5 8.7 0.00 0.00 0.00 62 1019.6
20260904053004 71 260 7.0 14.8 0.00 0.00 0.00 62 1019.8
20260904052504 71 187 12.2 13.0 0.00 0.00 0.00 62 1019.6
20260904052004 71 193 6.1 13.9 0.00 0.00 0.00 62 1019.7